Dewpoint
67 66 65 63 62 60 58 58 59 57 55 54 53 52 52 53 53 54 56 58 57 56 55 55 55 55 55 54 54 54 54 53 53 53 53 53 53 53 53 53 53 53 53
54 66 64 62 62 61 59 60 58 56 54 54 53 53 53 53 53 54 57 57 56 55 55 55 55 55 54 54 54 54 53 53 53 53 53 53 53 52 52 52 52 52 52
53 56 64 62 61 62 61 59 58 56 54 54 53 53 54 54 53 54 55 55 56 55 55 54 54 54 54 54 54 53 53 53 53 53 53 53 52 52 52 52 52 52 52
52 52 54 62 61 61 60 58 57 55 53 53 53 53 53 54 53 53 53 53 54 54 55 55 54 54 54 54 53 53 53 52 52 52 52 52 52 52 52 51 51 52 52
53 52 53 62 61 59 59 57 56 54 53 52 52 52 53 53 53 52 52 53 53 54 54 54 53 53 54 53 53 53 52 52 51 51 51 52 51 51 51 51 51 51 51
53 52 54 60 60 58 58 57 55 54 52 52 52 52 53 53 53 52 51 51 52 52 53 53 54 52 53 53 53 52 52 51 51 50 50 50 51 51 50 50 50 51 51
52 54 53 54 60 58 57 56 55 53 53 52 51 48 47 50 51 52 51 50 51 51 52 52 52 51 52 53 53 52 51 50 50 49 49 49 50 50 50 50 50 50 50
53 51 52 53 58 58 57 56 54 53 52 51 48 48 47 48 45 48 49 50 49 50 51 51 51 51 50 50 51 51 51 50 49 48 48 48 48 49 49 49 49 49 50
48 53 52 53 54 58 56 55 54 52 49 50 50 46 46 44 47 42 44 49 49 49 49 50 50 50 50 50 49 48 47 48 48 47 46 46 47 48 48 48 49 49 49
46 51 52 52 53 59 56 55 54 52 50 50 51 47 45 45 43 43 41 44 48 48 49 48 48 49 49 50 49 47 46 45 46 45 44 44 44 46 47 48 48 48 48
43 47 52 52 52 58 57 55 54 53 51 51 50 46 43 45 45 43 42 44 44 46 47 48 46 46 47 48 49 48 45 44 40 38 39 41 43 44 46 47 47 46 47
40 44 51 52 53 58 56 56 55 54 51 51 50 48 42 40 40 39 39 42 43 44 45 46 45 42 42 45 47 46 45 46 43 38 38 41 43 45 45 46 47 46 45
37 40 43 49 52 58 57 56 55 53 51 50 50 49 43 40 37 32 36 40 40 41 42 43 43 42 37 36 40 40 41 43 42 40 41 43 44 45 45 46 47 45 44
34 36 39 43 50 56 56 55 55 54 52 51 50 48 43 38 34 30 34 36 34 37 34 38 41 40 39 34 31 35 35 39 40 40 40 42 43 44 45 45 44 42 42
33 34 38 40 44 53 55 54 54 54 53 52 50 49 44 39 33 32 31 34 37 32 34 32 30 38 37 35 33 33 31 35 40 41 41 41 42 43 43 42 42 42 41
30 32 35 38 44 50 54 54 53 53 52 52 50 49 45 39 33 33 31 31 31 33 33 31 27 30 35 33 34 32 31 34 38 40 41 42 42 42 41 41 42 42 41
28 29 32 36 40 45 54 53 52 52 51 51 50 48 44 39 34 30 29 29 29 32 32 29 28 29 30 32 30 33 32 33 31 38 40 41 42 42 41 41 41 41 40
26 27 30 33 37 42 54 52 52 51 50 50 49 49 47 48 44 42 32 27 27 30 31 27 28 28 30 31 30 32 31 30 31 35 39 41 41 41 40 40 40 40 40
25 27 29 32 35 40 49 53 52 51 50 50 49 49 49 49 48 48 46 38 31 29 28 27 27 29 30 31 31 32 33 30 30 32 36 37 38 38 39 39 39 39 38
24 25 27 30 33 37 43 53 52 51 50 50 50 50 50 49 48 47 46 46 41 33 30 28 26 27 29 30 31 30 30 32 31 28 29 30 33 35 36 37 37 35 30
23 25 26 29 32 36 40 52 52 51 50 50 50 50 50 49 49 47 45 43 39 35 31 28 28 28 28 27 28 30 30 30 30 31 30 30 31 32 33 32 29 25 29
22 24 25 28 31 34 40 51 52 52 51 50 49 49 49 47 47 45 44 40 37 35 30 28 27 25 26 27 30 30 32 31 28 32 33 32 30 31 28 28 25 27 29
22 23 24 26 29 33 38 45 52 52 51 50 49 48 48 46 46 45 45 42 38 37 31 29 26 25 26 27 29 30 31 32 36 31 33 30 28 29 27 21 25 27 28
21 23 23 25 27 31 35 39 51 52 51 51 49 48 47 46 45 45 43 41 39 38 34 31 29 29 27 29 30 32 32 31 28 27 30 26 29 32 26 23 24 26 24
20 22 23 25 28 29 33 37 50 52 50 50 50 48 47 45 44 44 42 40 38 37 37 34 31 31 31 32 32 31 27 26 25 26 27 31 28 31 24 23 22 23 22
20 23 24 25 28 30 32 37 49 51 49 49 49 47 46 45 42 42 41 40 40 39 36 34 33 32 33 34 32 31 29 26 26 24 30 28 28 29 30 23 21 21 22
Wind_Speed
17 18 20 19 18 22 21 21 19 18 17 16 15 15 14 12 12 12 11 13 10 13 13 12 13 12 11 11 12 12 11 11 12 11 11 11 11 11 10 10 11 11 11
21 21 18 19 19 19 19 17 19 18 17 16 16 15 15 14 13 13 9 10 10 10 12 12 11 11 11 10 10 10 10 10 10 10 9 9 9 9 9 9 10 10 11
17 20 18 20 20 18 22 19 20 18 16 15 16 15 14 14 13 16 11 9 9 8 9 11 11 10 10 10 10 9 9 8 8 8 8 8 7 7 8 8 9 10 10
17 21 21 24 22 20 20 21 21 20 18 16 15 15 14 13 14 15 14 11 8 9 6 9 10 9 9 9 9 9 8 7 6 6 6 6 6 6 7 8 8 9 10
14 17 22 20 26 23 22 23 21 21 21 19 16 14 12 13 13 12 14 11 7 6 7 7 8 8 8 8 9 9 8 7 6 5 4 4 5 5 6 7 7 8 9
7 18 17 15 27 24 22 22 25 21 20 20 17 14 11 10 11 13 13 13 12 10 7 8 7 8 6 8 8 8 8 7 6 5 4 3 3 4 5 6 7 8 9
14 14 18 19 24 29 26 27 27 26 20 19 17 11 6 6 10 11 12 12 11 12 11 12 11 8 9 6 8 8 8 7 6 4 4 2 1 3 4 5 6 7 9
8 14 18 15 18 27 30 27 28 24 17 23 17 13 6 3 5 8 10 12 14 12 12 12 11 11 9 11 9 9 9 7 6 4 2 1 1 2 4 5 6 8 9
21 13 19 19 20 23 30 30 32 31 24 24 24 12 9 11 11 6 10 12 13 13 13 12 12 11 11 10 9 7 2 5 6 6 4 3 1 2 3 5 7 8 9
19 18 18 18 23 22 28 32 30 31 24 28 23 11 8 12 11 9 7 12 15 15 15 13 12 12 12 11 11 8 11 8 8 7 6 5 4 5 4 5 7 8 10
19 23 15 21 24 19 24 32 32 32 27 29 27 21 12 9 11 6 12 17 14 17 17 16 15 14 14 13 12 11 12 11 10 10 9 9 8 8 7 6 9 10 10
16 18 16 18 19 22 21 27 35 36 31 30 27 23 18 12 15 7 4 21 21 19 18 17 16 15 14 14 14 11 13 13 12 11 11 11 10 10 9 9 10 12 13
16 17 17 20 20 21 23 22 27 31 34 32 32 28 21 15 9 8 9 10 9 10 13 18 18 16 15 14 15 16 14 13 13 13 12 12 11 10 11 11 11 13 14
20 17 19 22 26 24 26 23 20 25 29 33 32 25 23 17 13 9 8 11 6 10 9 8 19 19 18 16 15 16 13 15 15 14 13 12 11 10 9 10 12 12 14
19 19 21 21 24 26 26 26 22 23 23 28 30 28 24 18 12 11 9 10 9 9 16 14 8 19 17 16 15 15 15 14 16 13 13 12 10 9 9 11 11 11 14
21 20 22 22 22 24 20 28 27 24 23 25 22 26 24 18 13 11 11 8 4 5 5 7 13 5 15 13 13 15 14 11 14 13 14 13 12 10 9 11 12 11 13
22 22 23 22 23 24 18 23 28 29 31 29 25 24 23 17 17 15 11 10 8 5 4 2 3 6 7 14 13 14 13 13 11 14 14 12 11 9 8 10 12 12 13
22 22 24 23 22 24 23 27 28 28 33 31 31 29 28 22 21 15 12 12 12 9 5 6 4 4 4 8 12 14 13 12 12 10 11 10 9 8 7 8 10 12 13
23 22 22 24 22 26 23 23 27 29 33 32 32 33 32 30 28 24 22 19 11 9 6 7 6 2 2 7 7 11 13 11 9 5 7 6 9 7 8 7 9 9 6
23 24 22 23 21 26 27 26 25 25 29 30 29 29 29 30 30 29 26 24 18 14 10 11 8 6 3 4 5 11 10 10 9 6 6 7 5 6 8 7 6 5 5
23 23 23 23 22 24 23 27 29 26 28 27 25 25 26 27 29 28 25 25 23 22 16 15 9 6 7 7 10 10 8 8 8 6 7 5 3 5 4 4 3 1 4
24 23 20 22 22 24 27 31 29 26 25 28 27 26 25 29 30 29 27 27 28 27 23 16 12 12 11 9 11 12 9 6 7 8 7 5 3 6 3 2 1 2 2
25 25 21 21 24 26 33 30 36 26 26 27 28 27 25 24 28 26 26 24 24 26 26 24 23 16 14 16 15 15 12 8 5 6 6 6 2 3 2 2 1 1 1
24 23 21 22 24 26 32 32 38 33 26 27 27 28 28 25 28 27 25 22 22 24 23 19 20 15 13 17 18 12 14 10 8 4 2 4 3 5 3 1 1 3 2
24 24 21 22 24 28 32 30 38 33 27 27 26 27 28 27 31 32 27 26 23 22 16 16 13 16 16 21 20 18 15 15 5 4 5 6 4 2 1 2 3 1 4
24 23 23 21 25 29 31 36 38 29 26 25 24 25 31 28 32 36 30 28 26 25 19 17 12 14 16 19 24 13 20 20 8 5 9 9 5 3 2 2 1 3 5
Wind_Direction
189 188 181 178 180 178 175 176 181 177 174 172 174 173 169 165 159 141 149 145 161 147 144 141 137 133 127 123 119 114 108 106 104 99 95 88 83 77 68 60 55 49 41
326 184 180 180 180 181 175 169 181 178 175 173 174 177 172 167 162 144 128 147 149 153 152 150 144 140 136 132 124 119 115 111 106 104 100 93 88 83 75 65 54 45 38
330 324 185 183 180 175 175 175 176 176 176 176 175 175 171 170 164 155 150 153 159 161 166 159 152 150 146 142 134 128 119 116 113 113 107 99 90 81 66 55 50 42 34
316 328 321 183 176 169 170 178 177 175 176 177 174 174 175 174 172 166 167 169 158 170 175 155 161 160 157 152 143 140 132 128 120 116 108 98 87 73 72 56 45 41 31
335 311 319 195 176 172 172 174 179 179 174 175 175 172 175 178 178 176 168 169 159 170 179 162 174 167 161 167 157 151 145 139 134 127 107 84 68 56 50 49 42 33 24
321 312 314 290 175 174 174 174 173 182 179 171 163 164 169 174 181 190 179 181 187 188 184 170 169 174 171 182 171 163 161 158 156 142 121 98 75 51 36 36 35 28 19
304 317 318 312 199 176 174 176 171 172 175 160 148 139 133 168 184 192 192 193 189 192 196 186 200 182 182 192 184 180 181 176 168 162 142 130 82 44 28 25 19 17 11
292 293 288 298 261 182 176 181 164 162 166 171 173 144 154 194 201 201 202 200 199 195 196 198 201 199 191 191 189 192 194 191 183 176 176 159 343 18 19 5 1 3 357
308 291 299 297 316 209 178 178 167 171 172 184 175 155 161 209 173 194 213 211 209 206 206 203 203 201 203 200 181 184 178 198 201 197 203 210 253 314 346 349 346 345 345
302 288 276 293 310 222 189 178 177 177 172 180 180 198 204 144 179 188 214 217 216 215 212 207 208 206 205 210 208 201 184 195 215 228 236 252 267 285 312 332 330 331 333
295 297 281 286 301 209 210 182 183 181 176 182 184 180 179 182 180 164 189 199 216 221 218 214 209 209 208 210 214 213 207 212 226 241 253 262 269 280 292 305 311 317 321
294 288 280 282 295 221 206 205 186 182 178 185 191 188 188 185 186 167 152 188 205 213 213 215 214 212 211 212 215 215 212 220 231 243 252 256 268 276 285 290 298 310 320
293 299 315 305 270 235 201 209 200 188 177 185 191 194 197 201 175 169 134 159 180 188 206 217 214 211 212 212 215 207 213 220 231 238 248 255 266 277 286 294 302 308 320
292 304 298 294 290 269 195 194 200 198 188 185 191 193 195 192 185 176 154 153 149 191 191 201 207 209 209 209 211 198 212 213 220 232 243 254 270 284 289 293 297 309 317
292 297 296 294 291 287 200 183 192 198 193 194 189 190 194 192 184 177 167 170 152 172 212 209 184 208 206 204 203 198 208 210 214 222 237 251 262 269 287 294 292 303 308
292 291 293 289 291 292 213 191 188 190 186 193 192 188 192 188 180 173 173 164 153 156 161 183 205 170 199 200 199 204 206 201 213 218 232 243 252 263 281 288 293 299 305
293 291 286 289 289 292 229 209 195 188 191 189 185 183 188 184 186 176 173 164 157 145 154 138 125 168 176 201 196 204 201 205 212 216 231 239 255 266 278 288 295 303 306
293 291 286 283 283 278 245 204 201 193 192 195 192 185 186 187 193 190 184 192 177 168 166 157 147 163 185 188 199 197 205 210 210 200 215 232 255 264 278 291 296 296 302
291 289 284 281 281 272 272 213 205 197 194 193 194 193 193 192 193 198 198 205 192 174 170 151 146 135 139 166 175 197 201 211 213 191 212 228 243 254 262 266 275 288 315
292 290 286 280 276 279 286 215 208 205 202 198 197 196 193 193 195 193 196 199 194 189 187 155 150 157 160 156 162 181 194 206 209 196 205 223 223 234 251 258 280 309 325
293 288 290 284 279 277 276 211 204 200 193 194 190 191 191 192 194 190 187 190 181 185 182 177 172 156 179 166 189 179 181 182 207 194 197 200 209 237 227 233 241 328 324
294 292 292 287 282 277 259 226 196 199 192 189 185 189 190 183 189 185 187 190 185 184 185 177 172 195 195 176 159 161 148 159 194 192 180 156 195 226 208 182 73 307 336
298 294 291 286 276 269 261 267 195 204 192 189 186 183 185 186 184 186 192 188 185 189 186 186 189 194 185 187 160 161 174 172 163 155 142 164 194 215 211 153 299 145 2
296 292 290 289 282 275 279 294 194 204 203 196 189 183 185 181 185 183 181 187 190 200 201 196 203 186 185 171 172 171 161 124 94 122 137 151 178 213 177 96 178 185 10
299 294 290 288 283 280 284 289 194 201 200 196 190 189 187 184 184 177 177 181 187 200 207 209 198 179 169 166 157 135 152 156 152 174 186 151 187 173 81 228 200 244 307
295 293 290 284 275 275 274 259 203 196 196 192 190 193 192 185 179 177 177 181 185 195 185 187 174 153 155 164 165 170 162 168 138 164 200 168 154 145 177 187 262 290 319